owner,sensor,date,latitude,longitude,air_temperature,qcFlag 
TABS,ioos:station:wmo:42047:1,2004-08-19T15:39:00Z,27.8966,-93.5973,29.9,11144222 
TABS,ioos:station:wmo:42047:1,2004-08-19T16:09:00Z,27.8966,-93.5973,30.5,11144222 
TABS,ioos:station:wmo:42047:1,2004-08-19T16:39:00Z,27.8966,-93.5973,30.0,11144222 
TABS,ioos:station:wmo:42047:1,2004-08-19T17:09:00Z,27.8966,-93.5973,30.3,11144222 
TABS,ioos:station:wmo:42047:1,2004-08-19T17:39:00Z,27.8966,-93.5973,30.5,11144222 
TABS,ioos:station:wmo:42047:1,2004-08-19T18:09:00Z,27.8966,-93.5973,30.6,11144222 
TABS,ioos:station:wmo:42047:1,2004-08-19T18:39:00Z,27.8966,-93.5973,30.6,11144222 
TABS,ioos:station:wmo:42047:1,2004-08-19T19:09:00Z,27.8966,-93.5973,30.6,11144222 
TABS,ioos:station:wmo:42047:1,2004-08-19T19:39:00Z,27.8966,-93.5973,30.7,11144222 
TABS,ioos:station:wmo:42047:1,2004-08-19T20:09:00Z,27.8966,-93.5973,30.7,11144222 
TABS,ioos:station:wmo:42047:1,2004-08-19T20:39:00Z,27.8966,-93.5973,30.6,11144222 
TABS,ioos:station:wmo:42047:1,2004-08-19T21:09:00Z,27.8966,-93.5973,30.7,11144222 
TABS,ioos:station:wmo:42047:1,2004-08-19T21:39:00Z,27.8966,-93.5973,30.8,11144222 
TABS,ioos:station:wmo:42047:1,2004-08-19T22:09:00Z,27.8966,-93.5973,30.7,11144222 
TABS,ioos:station:wmo:42047:1,2004-08-19T22:39:00Z,27.8966,-93.5973,30.7,11144222 
TABS,ioos:station:wmo:42047:1,2004-08-19T23:09:00Z,27.8966,-93.5973,30.9,11144222 
TABS,ioos:station:wmo:42047:1,2004-08-19T23:39:00Z,27.8966,-93.5973,30.7,11144222 
TABS,ioos:station:wmo:42047:1,2004-08-20T00:09:00Z,27.8966,-93.5973,30.6,11144222 
TABS,ioos:station:wmo:42047:1,2004-08-20T00:39:00Z,27.8966,-93.5973,30.5,11144222 
TABS,ioos:station:wmo:42047:1,2004-08-20T01:09:00Z,27.8966,-93.5973,30.5,11144222 
TABS,ioos:station:wmo:42047:1,2004-08-20T01:39:00Z,27.8966,-93.5973,30.5,11144222 
TABS,ioos:station:wmo:42047:1,2004-08-20T02:09:00Z,27.8966,-93.5973,30.5,11144222 
TABS,ioos:station:wmo:42047:1,2004-08-20T02:39:00Z,27.8966,-93.5973,30.5,11144222 
TABS,ioos:station:wmo:42047:1,2004-08-20T03:09:00Z,27.8966,-93.5973,30.6,11144222 
TABS,ioos:station:wmo:42047:1,2004-08-20T03:39:00Z,27.8966,-93.5973,30.5,11144222 
TABS,ioos:station:wmo:42047:1,2004-08-20T04:09:00Z,27.8966,-93.5973,30.5,11144222 
TABS,ioos:station:wmo:42047:1,2004-08-20T04:39:00Z,27.8966,-93.5973,30.5,11144222 
TABS,ioos:station:wmo:42047:1,2004-08-20T05:09:00Z,27.8966,-93.5973,30.5,11144222 
TABS,ioos:station:wmo:42047:1,2004-08-20T05:39:00Z,27.8966,-93.5973,30.5,11144222 
TABS,ioos:station:wmo:42047:1,2004-08-20T06:09:00Z,27.8966,-93.5973,30.4,11144222 
TABS,ioos:station:wmo:42047:1,2004-08-20T06:39:00Z,27.8966,-93.5973,30.4,11144222 
TABS,ioos:station:wmo:42047:1,2004-08-20T07:09:00Z,27.8966,-93.5973,30.5,11144222 
TABS,ioos:station:wmo:42047:1,2004-08-20T07:39:00Z,27.8966,-93.5973,30.5,11144222 
TABS,ioos:station:wmo:42047:1,2004-08-20T08:09:00Z,27.8966,-93.5973,30.5,11144222 
TABS,ioos:station:wmo:42047:1,2004-08-20T08:39:00Z,27.8966,-93.5973,29.9,11144222 
TABS,ioos:station:wmo:42047:1,2004-08-20T09:09:00Z,27.8966,-93.5973,29.6,11144222 
TABS,ioos:station:wmo:42047:1,2004-08-20T09:39:00Z,27.8966,-93.5973,30.0,11144222 
TABS,ioos:station:wmo:42047:1,2004-08-20T10:09:00Z,27.8966,-93.5973,30.5,11144222 
TABS,ioos:station:wmo:42047:1,2004-08-20T10:39:00Z,27.8966,-93.5973,30.4,11144222 
TABS,ioos:station:wmo:42047:1,2004-08-20T11:09:00Z,27.8966,-93.5973,30.5,11144222 
TABS,ioos:station:wmo:42047:1,2004-08-20T11:39:00Z,27.8966,-93.5973,30.5,11144222 
TABS,ioos:station:wmo:42047:1,2004-08-20T12:09:00Z,27.8966,-93.5973,30.5,11144222 
TABS,ioos:station:wmo:42047:1,2004-08-20T12:39:00Z,27.8966,-93.5973,30.5,11144222 
TABS,ioos:station:wmo:42047:1,2004-08-20T13:09:00Z,27.8966,-93.5973,30.5,11144222 
TABS,ioos:station:wmo:42047:1,2004-08-20T13:39:00Z,27.8966,-93.5973,30.6,11144222 
TABS,ioos:station:wmo:42047:1,2004-08-20T14:09:00Z,27.8966,-93.5973,30.6,11144222 
TABS,ioos:station:wmo:42047:1,2004-08-20T14:39:00Z,27.8966,-93.5973,30.6,11144222 
TABS,ioos:station:wmo:42047:1,2004-08-20T15:09:00Z,27.8966,-93.5973,30.6,11144222 
TABS,ioos:station:wmo:42047:1,2004-08-20T15:39:00Z,27.8966,-93.5973,30.6,11144222 
TABS,ioos:station:wmo:42047:1,2004-08-20T16:09:00Z,27.8966,-93.5973,30.6,11144222 
TABS,ioos:station:wmo:42047:1,2004-08-20T16:39:00Z,27.8966,-93.5973,30.7,11144222 
TABS,ioos:station:wmo:42047:1,2004-08-20T17:09:00Z,27.8966,-93.5973,30.6,11144222 
TABS,ioos:station:wmo:42047:1,2004-08-20T17:39:00Z,27.8966,-93.5973,30.6,11144222 
TABS,ioos:station:wmo:42047:1,2004-08-20T18:09:00Z,27.8966,-93.5973,30.6,11144222 
TABS,ioos:station:wmo:42047:1,2004-08-20T18:39:00Z,27.8966,-93.5973,30.6,11144222 
TABS,ioos:station:wmo:42047:1,2004-08-20T19:09:00Z,27.8966,-93.5973,30.7,11144222 
TABS,ioos:station:wmo:42047:1,2004-08-20T19:39:00Z,27.8966,-93.5973,30.7,11144222 
TABS,ioos:station:wmo:42047:1,2004-08-20T20:09:00Z,27.8966,-93.5973,30.7,11144222 
TABS,ioos:station:wmo:42047:1,2004-08-20T20:39:00Z,27.8966,-93.5973,30.8,11144222 
TABS,ioos:station:wmo:42047:1,2004-08-20T21:09:00Z,27.8966,-93.5973,30.7,11144222 
TABS,ioos:station:wmo:42047:1,2004-08-20T21:39:00Z,27.8966,-93.5973,30.8,11144222 
TABS,ioos:station:wmo:42047:1,2004-08-20T22:09:00Z,27.8966,-93.5973,30.8,11144222 
TABS,ioos:station:wmo:42047:1,2004-08-20T22:39:00Z,27.8966,-93.5973,30.9,11144222 
TABS,ioos:station:wmo:42047:1,2004-08-20T23:09:00Z,27.8966,-93.5973,30.8,11144222 
TABS,ioos:station:wmo:42047:1,2004-08-20T23:39:00Z,27.8966,-93.5973,30.8,11144222 
TABS,ioos:station:wmo:42047:1,2004-08-21T00:09:00Z,27.8966,-93.5973,30.7,11144222 
TABS,ioos:station:wmo:42047:1,2004-08-21T00:39:00Z,27.8966,-93.5973,30.6,11144222 
TABS,ioos:station:wmo:42047:1,2004-08-21T01:09:00Z,27.8966,-93.5973,30.5,11144222 
TABS,ioos:station:wmo:42047:1,2004-08-21T01:39:00Z,27.8966,-93.5973,30.5,11144222 
TABS,ioos:station:wmo:42047:1,2004-08-21T02:09:00Z,27.8966,-93.5973,30.4,11144222 
TABS,ioos:station:wmo:42047:1,2004-08-21T02:39:00Z,27.8966,-93.5973,30.5,11144222 
TABS,ioos:station:wmo:42047:1,2004-08-21T03:09:00Z,27.8966,-93.5973,30.5,11144222 
TABS,ioos:station:wmo:42047:1,2004-08-21T03:39:00Z,27.8966,-93.5973,30.5,11144222 
TABS,ioos:station:wmo:42047:1,2004-08-21T04:09:00Z,27.8966,-93.5973,30.5,11144222 
TABS,ioos:station:wmo:42047:1,2004-08-21T04:39:00Z,27.8966,-93.5973,30.4,11144222 
TABS,ioos:station:wmo:42047:1,2004-08-21T05:09:00Z,27.8966,-93.5973,30.4,11144222 
TABS,ioos:station:wmo:42047:1,2004-08-21T05:39:00Z,27.8966,-93.5973,30.4,11144222 
TABS,ioos:station:wmo:42047:1,2004-08-21T06:09:00Z,27.8966,-93.5973,30.4,11144222 
TABS,ioos:station:wmo:42047:1,2004-08-21T06:39:00Z,27.8966,-93.5973,30.3,11144222 
TABS,ioos:station:wmo:42047:1,2004-08-21T07:09:00Z,27.8966,-93.5973,30.3,11144222 
TABS,ioos:station:wmo:42047:1,2004-08-21T07:39:00Z,27.8966,-93.5973,30.3,11144222 
TABS,ioos:station:wmo:42047:1,2004-08-21T08:09:00Z,27.8966,-93.5973,30.3,11144222 
TABS,ioos:station:wmo:42047:1,2004-08-21T08:39:00Z,27.8966,-93.5973,30.3,11144222 
TABS,ioos:station:wmo:42047:1,2004-08-21T09:09:00Z,27.8966,-93.5973,30.2,11144222 
TABS,ioos:station:wmo:42047:1,2004-08-21T09:39:00Z,27.8966,-93.5973,30.2,11144222 
TABS,ioos:station:wmo:42047:1,2004-08-21T10:09:00Z,27.8966,-93.5973,30.2,11144222 
TABS,ioos:station:wmo:42047:1,2004-08-21T10:39:00Z,27.8966,-93.5973,30.2,11144222 
TABS,ioos:station:wmo:42047:1,2004-08-21T11:09:00Z,27.8966,-93.5973,30.2,11144222 
TABS,ioos:station:wmo:42047:1,2004-08-21T11:39:00Z,27.8966,-93.5973,30.2,11144222 
TABS,ioos:station:wmo:42047:1,2004-08-21T12:09:00Z,27.8966,-93.5973,30.2,11144222 
TABS,ioos:station:wmo:42047:1,2004-08-21T12:39:00Z,27.8966,-93.5973,30.3,11144222 
TABS,ioos:station:wmo:42047:1,2004-08-21T13:09:00Z,27.8966,-93.5973,30.4,11144222 
TABS,ioos:station:wmo:42047:1,2004-08-21T13:39:00Z,27.8966,-93.5973,30.6,11144222 
TABS,ioos:station:wmo:42047:1,2004-08-21T14:09:00Z,27.8966,-93.5973,30.6,11144222 
TABS,ioos:station:wmo:42047:1,2004-08-21T14:39:00Z,27.8966,-93.5973,30.5,11144222 
TABS,ioos:station:wmo:42047:1,2004-08-21T15:09:00Z,27.8966,-93.5973,30.7,11144222 
TABS,ioos:station:wmo:42047:1,2004-08-21T15:39:00Z,27.8966,-93.5973,30.6,11144222 
TABS,ioos:station:wmo:42047:1,2004-08-21T16:09:00Z,27.8966,-93.5973,30.7,11144222 
TABS,ioos:station:wmo:42047:1,2004-08-21T16:39:00Z,27.8966,-93.5973,30.7,11144222 
TABS,ioos:station:wmo:42047:1,2004-08-21T17:09:00Z,27.8966,-93.5973,30.3,11144222 
TABS,ioos:station:wmo:42047:1,2004-08-21T17:39:00Z,27.8966,-93.5973,30.6,11144222 
TABS,ioos:station:wmo:42047:1,2004-08-21T18:09:00Z,27.8966,-93.5973,30.5,11144222 
TABS,ioos:station:wmo:42047:1,2004-08-21T18:39:00Z,27.8966,-93.5973,30.6,11144222 
TABS,ioos:station:wmo:42047:1,2004-08-21T19:09:00Z,27.8966,-93.5973,30.7,11144222 
TABS,ioos:station:wmo:42047:1,2004-08-21T19:39:00Z,27.8966,-93.5973,30.7,11144222 
TABS,ioos:station:wmo:42047:1,2004-08-21T20:09:00Z,27.8966,-93.5973,30.2,11144222 
TABS,ioos:station:wmo:42047:1,2004-08-21T20:39:00Z,27.8966,-93.5973,30.3,11144222 
TABS,ioos:station:wmo:42047:1,2004-08-21T21:09:00Z,27.8966,-93.5973,30.4,11144222 
TABS,ioos:station:wmo:42047:1,2004-08-21T21:39:00Z,27.8966,-93.5973,30.4,11144222 
TABS,ioos:station:wmo:42047:1,2004-08-21T22:09:00Z,27.8966,-93.5973,30.4,11144222 
TABS,ioos:station:wmo:42047:1,2004-08-21T22:39:00Z,27.8966,-93.5973,30.4,11144222 
TABS,ioos:station:wmo:42047:1,2004-08-21T23:09:00Z,27.8966,-93.5973,30.5,11144222 
TABS,ioos:station:wmo:42047:1,2004-08-21T23:39:00Z,27.8966,-93.5973,30.5,11144222 
TABS,ioos:station:wmo:42047:1,2004-08-22T00:09:00Z,27.8966,-93.5973,30.5,11144222 
TABS,ioos:station:wmo:42047:1,2004-08-22T00:39:00Z,27.8966,-93.5973,30.4,11144222 
TABS,ioos:station:wmo:42047:1,2004-08-22T01:09:00Z,27.8966,-93.5973,30.3,11144222 
TABS,ioos:station:wmo:42047:1,2004-08-22T01:39:00Z,27.8966,-93.5973,30.3,11144222 
TABS,ioos:station:wmo:42047:1,2004-08-22T02:09:00Z,27.8966,-93.5973,30.3,11144222 
TABS,ioos:station:wmo:42047:1,2004-08-22T02:39:00Z,27.8966,-93.5973,30.4,11144222 
TABS,ioos:station:wmo:42047:1,2004-08-22T03:09:00Z,27.8966,-93.5973,30.4,11144222 
TABS,ioos:station:wmo:42047:1,2004-08-22T03:39:00Z,27.8966,-93.5973,30.4,11144222 
TABS,ioos:station:wmo:42047:1,2004-08-22T04:09:00Z,27.8966,-93.5973,30.4,11144222 
TABS,ioos:station:wmo:42047:1,2004-08-22T04:39:00Z,27.8966,-93.5973,30.3,11144222 
TABS,ioos:station:wmo:42047:1,2004-08-22T05:09:00Z,27.8966,-93.5973,30.3,11144222 
TABS,ioos:station:wmo:42047:1,2004-08-22T05:39:00Z,27.8966,-93.5973,30.2,11144222 
TABS,ioos:station:wmo:42047:1,2004-08-22T06:09:00Z,27.8966,-93.5973,30.2,11144222 
TABS,ioos:station:wmo:42047:1,2004-08-22T06:39:00Z,27.8966,-93.5973,30.2,11144222 
TABS,ioos:station:wmo:42047:1,2004-08-22T07:09:00Z,27.8966,-93.5973,30.1,11144222 
TABS,ioos:station:wmo:42047:1,2004-08-22T07:39:00Z,27.8966,-93.5973,30.2,11144222 
TABS,ioos:station:wmo:42047:1,2004-08-22T08:09:00Z,27.8966,-93.5973,30.1,11144222 
TABS,ioos:station:wmo:42047:1,2004-08-22T08:39:00Z,27.8966,-93.5973,30.1,11144222 
TABS,ioos:station:wmo:42047:1,2004-08-22T09:09:00Z,27.8966,-93.5973,30.1,11144222 
TABS,ioos:station:wmo:42047:1,2004-08-22T09:39:00Z,27.8966,-93.5973,30.1,11144222 
TABS,ioos:station:wmo:42047:1,2004-08-22T10:09:00Z,27.8966,-93.5973,30.0,11144222 
TABS,ioos:station:wmo:42047:1,2004-08-22T10:39:00Z,27.8966,-93.5973,30.0,11144222 
TABS,ioos:station:wmo:42047:1,2004-08-22T11:09:00Z,27.8966,-93.5973,30.1,11144222 
TABS,ioos:station:wmo:42047:1,2004-08-22T11:39:00Z,27.8966,-93.5973,30.0,11144222 
TABS,ioos:station:wmo:42047:1,2004-08-22T12:09:00Z,27.8966,-93.5973,30.1,11144222 
TABS,ioos:station:wmo:42047:1,2004-08-22T12:39:00Z,27.8966,-93.5973,30.2,11144222 
TABS,ioos:station:wmo:42047:1,2004-08-22T13:09:00Z,27.8966,-93.5973,30.2,11144222 
TABS,ioos:station:wmo:42047:1,2004-08-22T13:39:00Z,27.8966,-93.5973,30.5,11144222 
TABS,ioos:station:wmo:42047:1,2004-08-22T14:09:00Z,27.8966,-93.5973,30.5,11144222 
TABS,ioos:station:wmo:42047:1,2004-08-22T14:39:00Z,27.8966,-93.5973,30.4,11144222 
TABS,ioos:station:wmo:42047:1,2004-08-22T15:09:00Z,27.8966,-93.5973,30.6,11144222 
TABS,ioos:station:wmo:42047:1,2004-08-22T15:39:00Z,27.8966,-93.5973,30.6,11144222 
TABS,ioos:station:wmo:42047:1,2004-08-22T16:09:00Z,27.8966,-93.5973,30.6,11144222 
TABS,ioos:station:wmo:42047:1,2004-08-22T16:39:00Z,27.8966,-93.5973,30.6,11144222 
TABS,ioos:station:wmo:42047:1,2004-08-22T17:09:00Z,27.8966,-93.5973,30.6,11144222 
TABS,ioos:station:wmo:42047:1,2004-08-22T17:39:00Z,27.8966,-93.5973,30.6,11144222 
TABS,ioos:station:wmo:42047:1,2004-08-22T18:09:00Z,27.8966,-93.5973,30.7,11144222 
TABS,ioos:station:wmo:42047:1,2004-08-22T18:39:00Z,27.8966,-93.5973,30.7,11144222 
TABS,ioos:station:wmo:42047:1,2004-08-22T19:09:00Z,27.8966,-93.5973,30.7,11144222 
TABS,ioos:station:wmo:42047:1,2004-08-22T19:39:00Z,27.8966,-93.5973,30.7,11144222 
TABS,ioos:station:wmo:42047:1,2004-08-22T20:09:00Z,27.8966,-93.5973,30.8,11144222 
TABS,ioos:station:wmo:42047:1,2004-08-22T20:39:00Z,27.8966,-93.5973,30.9,11144222 
TABS,ioos:station:wmo:42047:1,2004-08-22T21:09:00Z,27.8966,-93.5973,30.9,11144222 
TABS,ioos:station:wmo:42047:1,2004-08-22T21:39:00Z,27.8966,-93.5973,30.9,11144222 
TABS,ioos:station:wmo:42047:1,2004-08-22T22:09:00Z,27.8966,-93.5973,31.1,11144222 
TABS,ioos:station:wmo:42047:1,2004-08-22T22:39:00Z,27.8966,-93.5973,30.8,11144222 
TABS,ioos:station:wmo:42047:1,2004-08-22T23:09:00Z,27.8966,-93.5973,30.7,11144222 
TABS,ioos:station:wmo:42047:1,2004-08-22T23:39:00Z,27.8966,-93.5973,30.7,11144222 
TABS,ioos:station:wmo:42047:1,2004-08-23T00:09:00Z,27.8966,-93.5973,30.6,11144222 
TABS,ioos:station:wmo:42047:1,2004-08-23T00:39:00Z,27.8966,-93.5973,30.6,11144222 
TABS,ioos:station:wmo:42047:1,2004-08-23T01:09:00Z,27.8966,-93.5973,30.6,11144222 
TABS,ioos:station:wmo:42047:1,2004-08-23T01:39:00Z,27.8966,-93.5973,30.6,11144222 
TABS,ioos:station:wmo:42047:1,2004-08-23T02:09:00Z,27.8966,-93.5973,30.5,11144222 
TABS,ioos:station:wmo:42047:1,2004-08-23T02:39:00Z,27.8966,-93.5973,30.6,11144222 
TABS,ioos:station:wmo:42047:1,2004-08-23T03:09:00Z,27.8966,-93.5973,30.6,11144222 
TABS,ioos:station:wmo:42047:1,2004-08-23T03:39:00Z,27.8966,-93.5973,30.6,11144222 
TABS,ioos:station:wmo:42047:1,2004-08-23T04:09:00Z,27.8966,-93.5973,30.5,11144222 
TABS,ioos:station:wmo:42047:1,2004-08-23T04:39:00Z,27.8966,-93.5973,30.5,11144222 
TABS,ioos:station:wmo:42047:1,2004-08-23T05:09:00Z,27.8966,-93.5973,30.6,11144222 
TABS,ioos:station:wmo:42047:1,2004-08-23T05:39:00Z,27.8966,-93.5973,30.5,11144222 
TABS,ioos:station:wmo:42047:1,2004-08-23T06:09:00Z,27.8966,-93.5973,30.5,11144222 
TABS,ioos:station:wmo:42047:1,2004-08-23T06:39:00Z,27.8966,-93.5973,30.5,11144222 
TABS,ioos:station:wmo:42047:1,2004-08-23T07:09:00Z,27.8966,-93.5973,30.5,11144222 
TABS,ioos:station:wmo:42047:1,2004-08-23T07:39:00Z,27.8966,-93.5973,30.5,11144222 
TABS,ioos:station:wmo:42047:1,2004-08-23T08:09:00Z,27.8966,-93.5973,30.4,11144222 
TABS,ioos:station:wmo:42047:1,2004-08-23T08:39:00Z,27.8966,-93.5973,30.4,11144222 
TABS,ioos:station:wmo:42047:1,2004-08-23T09:09:00Z,27.8966,-93.5973,30.4,11144222 
TABS,ioos:station:wmo:42047:1,2004-08-23T09:39:00Z,27.8966,-93.5973,30.4,11144222 
TABS,ioos:station:wmo:42047:1,2004-08-23T10:09:00Z,27.8966,-93.5973,30.3,11144222 
TABS,ioos:station:wmo:42047:1,2004-08-23T10:39:00Z,27.8966,-93.5973,30.3,11144222 
TABS,ioos:station:wmo:42047:1,2004-08-23T11:09:00Z,27.8966,-93.5973,30.4,11144222 
TABS,ioos:station:wmo:42047:1,2004-08-23T11:39:00Z,27.8966,-93.5973,30.4,11144222 
TABS,ioos:station:wmo:42047:1,2004-08-23T12:09:00Z,27.8966,-93.5973,30.4,11144222 
TABS,ioos:station:wmo:42047:1,2004-08-23T12:39:00Z,27.8966,-93.5973,30.5,11144222 
TABS,ioos:station:wmo:42047:1,2004-08-23T13:09:00Z,27.8966,-93.5973,30.6,11144222 
TABS,ioos:station:wmo:42047:1,2004-08-23T13:39:00Z,27.8966,-93.5973,30.6,11144222 
TABS,ioos:station:wmo:42047:1,2004-08-23T14:09:00Z,27.8966,-93.5973,30.6,11144222 
TABS,ioos:station:wmo:42047:1,2004-08-23T14:39:00Z,27.8966,-93.5973,30.7,11144222 
TABS,ioos:station:wmo:42047:1,2004-08-23T15:09:00Z,27.8966,-93.5973,30.7,11144222 
TABS,ioos:station:wmo:42047:1,2004-08-23T15:39:00Z,27.8966,-93.5973,30.7,11144222 
TABS,ioos:station:wmo:42047:1,2004-08-23T16:09:00Z,27.8966,-93.5973,30.7,11144222 
TABS,ioos:station:wmo:42047:1,2004-08-23T16:39:00Z,27.8966,-93.5973,30.7,11144222 
TABS,ioos:station:wmo:42047:1,2004-08-23T17:09:00Z,27.8966,-93.5973,30.8,11144222 
TABS,ioos:station:wmo:42047:1,2004-08-23T17:39:00Z,27.8966,-93.5973,30.7,11144222 
TABS,ioos:station:wmo:42047:1,2004-08-23T18:09:00Z,27.8966,-93.5973,30.8,11144222 
TABS,ioos:station:wmo:42047:1,2004-08-23T18:39:00Z,27.8966,-93.5973,30.8,11144222 
TABS,ioos:station:wmo:42047:1,2004-08-23T19:09:00Z,27.8966,-93.5973,30.7,11144222 
TABS,ioos:station:wmo:42047:1,2004-08-23T19:39:00Z,27.8966,-93.5973,30.8,11144222 
TABS,ioos:station:wmo:42047:1,2004-08-23T20:09:00Z,27.8966,-93.5973,30.8,11144222 
TABS,ioos:station:wmo:42047:1,2004-08-23T20:39:00Z,27.8966,-93.5973,31.0,11144222 
TABS,ioos:station:wmo:42047:1,2004-08-23T21:09:00Z,27.8966,-93.5973,31.0,11144222 
TABS,ioos:station:wmo:42047:1,2004-08-23T21:39:00Z,27.8966,-93.5973,31.0,11144222 
TABS,ioos:station:wmo:42047:1,2004-08-23T22:09:00Z,27.8966,-93.5973,30.9,11144222 
TABS,ioos:station:wmo:42047:1,2004-08-23T22:39:00Z,27.8966,-93.5973,31.0,11144222 
TABS,ioos:station:wmo:42047:1,2004-08-23T23:09:00Z,27.8966,-93.5973,31.0,11144222 
TABS,ioos:station:wmo:42047:1,2004-08-23T23:39:00Z,27.8966,-93.5973,31.0,11144222 
TABS,ioos:station:wmo:42047:1,2004-08-24T00:09:00Z,27.8966,-93.5973,30.8,11144222 
TABS,ioos:station:wmo:42047:1,2004-08-24T00:39:00Z,27.8966,-93.5973,30.7,11144222 
TABS,ioos:station:wmo:42047:1,2004-08-24T01:09:00Z,27.8966,-93.5973,30.7,11144222 
TABS,ioos:station:wmo:42047:1,2004-08-24T01:39:00Z,27.8966,-93.5973,30.8,11144222 
TABS,ioos:station:wmo:42047:1,2004-08-24T02:09:00Z,27.8966,-93.5973,30.7,11144222 
TABS,ioos:station:wmo:42047:1,2004-08-24T02:39:00Z,27.8966,-93.5973,30.6,11144222 
TABS,ioos:station:wmo:42047:1,2004-08-24T03:09:00Z,27.8966,-93.5973,30.7,11144222 
TABS,ioos:station:wmo:42047:1,2004-08-24T03:39:00Z,27.8966,-93.5973,30.6,11144222 
TABS,ioos:station:wmo:42047:1,2004-08-24T04:09:00Z,27.8966,-93.5973,30.6,11144222 
TABS,ioos:station:wmo:42047:1,2004-08-24T04:39:00Z,27.8966,-93.5973,30.6,11144222 
TABS,ioos:station:wmo:42047:1,2004-08-24T05:09:00Z,27.8966,-93.5973,30.6,11144222 
TABS,ioos:station:wmo:42047:1,2004-08-24T05:39:00Z,27.8966,-93.5973,30.6,11144222 
TABS,ioos:station:wmo:42047:1,2004-08-24T06:09:00Z,27.8966,-93.5973,30.5,11144222 
TABS,ioos:station:wmo:42047:1,2004-08-24T06:39:00Z,27.8966,-93.5973,30.6,11144222 
TABS,ioos:station:wmo:42047:1,2004-08-24T07:09:00Z,27.8966,-93.5973,30.5,11144222 
TABS,ioos:station:wmo:42047:1,2004-08-24T07:39:00Z,27.8966,-93.5973,30.4,11144222 
TABS,ioos:station:wmo:42047:1,2004-08-24T08:09:00Z,27.8966,-93.5973,30.4,11144222 
TABS,ioos:station:wmo:42047:1,2004-08-24T08:39:00Z,27.8966,-93.5973,30.4,11144222 
TABS,ioos:station:wmo:42047:1,2004-08-24T09:09:00Z,27.8966,-93.5973,30.3,11144222 
TABS,ioos:station:wmo:42047:1,2004-08-24T09:39:00Z,27.8966,-93.5973,30.4,11144222 
TABS,ioos:station:wmo:42047:1,2004-08-24T10:09:00Z,27.8966,-93.5973,30.3,11144222 
TABS,ioos:station:wmo:42047:1,2004-08-24T10:39:00Z,27.8966,-93.5973,30.4,11144222 
TABS,ioos:station:wmo:42047:1,2004-08-24T11:09:00Z,27.8966,-93.5973,30.3,11144222 
TABS,ioos:station:wmo:42047:1,2004-08-24T11:39:00Z,27.8966,-93.5973,30.3,11144222 
TABS,ioos:station:wmo:42047:1,2004-08-24T12:09:00Z,27.8966,-93.5973,30.4,11144222 
TABS,ioos:station:wmo:42047:1,2004-08-24T12:39:00Z,27.8966,-93.5973,30.6,11144222 
TABS,ioos:station:wmo:42047:1,2004-08-24T13:09:00Z,27.8966,-93.5973,30.7,11144222 
TABS,ioos:station:wmo:42047:1,2004-08-24T13:39:00Z,27.8966,-93.5973,30.7,11144222 
TABS,ioos:station:wmo:42047:1,2004-08-24T14:09:00Z,27.8966,-93.5973,30.8,11144222 
TABS,ioos:station:wmo:42047:1,2004-08-24T14:39:00Z,27.8966,-93.5973,30.7,11144222 
TABS,ioos:station:wmo:42047:1,2004-08-24T15:09:00Z,27.8966,-93.5973,30.8,11144222 
TABS,ioos:station:wmo:42047:1,2004-08-24T15:39:00Z,27.8966,-93.5973,30.8,11144222 
TABS,ioos:station:wmo:42047:1,2004-08-24T16:09:00Z,27.8966,-93.5973,30.8,11144222 
TABS,ioos:station:wmo:42047:1,2004-08-24T16:39:00Z,27.8966,-93.5973,30.8,11144222 
TABS,ioos:station:wmo:42047:1,2004-08-24T17:09:00Z,27.8966,-93.5973,30.8,11144222 
TABS,ioos:station:wmo:42047:1,2004-08-24T17:39:00Z,27.8966,-93.5973,30.8,11144222 
TABS,ioos:station:wmo:42047:1,2004-08-24T18:09:00Z,27.8966,-93.5973,30.9,11144222 
TABS,ioos:station:wmo:42047:1,2004-08-24T18:39:00Z,27.8966,-93.5973,30.8,11144222 
TABS,ioos:station:wmo:42047:1,2004-08-24T19:09:00Z,27.8966,-93.5973,30.9,11144222 
TABS,ioos:station:wmo:42047:1,2004-08-24T19:39:00Z,27.8966,-93.5973,30.9,11144222 
TABS,ioos:station:wmo:42047:1,2004-08-24T20:09:00Z,27.8966,-93.5973,30.9,11144222 
TABS,ioos:station:wmo:42047:1,2004-08-24T20:39:00Z,27.8966,-93.5973,31.1,11144222 
TABS,ioos:station:wmo:42047:1,2004-08-24T21:09:00Z,27.8966,-93.5973,31.0,11144222 
TABS,ioos:station:wmo:42047:1,2004-08-24T21:39:00Z,27.8966,-93.5973,30.9,11144222 
TABS,ioos:station:wmo:42047:1,2004-08-24T22:09:00Z,27.8966,-93.5973,31.1,11144222 
TABS,ioos:station:wmo:42047:1,2004-08-24T22:39:00Z,27.8966,-93.5973,31.0,11144222 
TABS,ioos:station:wmo:42047:1,2004-08-24T23:09:00Z,27.8966,-93.5973,31.0,11144222 
TABS,ioos:station:wmo:42047:1,2004-08-24T23:39:00Z,27.8966,-93.5973,31.1,11144222 
TABS,ioos:station:wmo:42047:1,2004-08-25T00:09:00Z,27.8966,-93.5973,30.9,11144222 
TABS,ioos:station:wmo:42047:1,2004-08-25T00:39:00Z,27.8966,-93.5973,30.8,11144222 
TABS,ioos:station:wmo:42047:1,2004-08-25T01:09:00Z,27.8966,-93.5973,30.8,11144222 
TABS,ioos:station:wmo:42047:1,2004-08-25T01:39:00Z,27.8966,-93.5973,30.7,11144222 
TABS,ioos:station:wmo:42047:1,2004-08-25T02:09:00Z,27.8966,-93.5973,30.7,11144222 
TABS,ioos:station:wmo:42047:1,2004-08-25T02:39:00Z,27.8966,-93.5973,30.7,11144222 
TABS,ioos:station:wmo:42047:1,2004-08-25T03:09:00Z,27.8966,-93.5973,30.7,11144222 
TABS,ioos:station:wmo:42047:1,2004-08-25T03:39:00Z,27.8966,-93.5973,30.7,11144222 
TABS,ioos:station:wmo:42047:1,2004-08-25T04:09:00Z,27.8966,-93.5973,30.7,11144222 
TABS,ioos:station:wmo:42047:1,2004-08-25T04:39:00Z,27.8966,-93.5973,30.5,11144222 
TABS,ioos:station:wmo:42047:1,2004-08-25T05:09:00Z,27.8966,-93.5973,30.7,11144222 
TABS,ioos:station:wmo:42047:1,2004-08-25T05:39:00Z,27.8966,-93.5973,30.7,11144222 
TABS,ioos:station:wmo:42047:1,2004-08-25T06:09:00Z,27.8966,-93.5973,30.4,11144222 
TABS,ioos:station:wmo:42047:1,2004-08-25T06:39:00Z,27.8966,-93.5973,30.3,11144222 
TABS,ioos:station:wmo:42047:1,2004-08-25T07:09:00Z,27.8966,-93.5973,30.6,11144222 
TABS,ioos:station:wmo:42047:1,2004-08-25T07:39:00Z,27.8966,-93.5973,30.5,11144222 
TABS,ioos:station:wmo:42047:1,2004-08-25T08:09:00Z,27.8966,-93.5973,30.5,11144222 
TABS,ioos:station:wmo:42047:1,2004-08-25T08:39:00Z,27.8966,-93.5973,30.5,11144222 
TABS,ioos:station:wmo:42047:1,2004-08-25T09:09:00Z,27.8966,-93.5973,30.5,11144222 
TABS,ioos:station:wmo:42047:1,2004-08-25T09:39:00Z,27.8966,-93.5973,30.4,11144222 
TABS,ioos:station:wmo:42047:1,2004-08-25T10:09:00Z,27.8966,-93.5973,30.5,11144222 
TABS,ioos:station:wmo:42047:1,2004-08-25T10:39:00Z,27.8966,-93.5973,30.5,11144222 
TABS,ioos:station:wmo:42047:1,2004-08-25T11:09:00Z,27.8966,-93.5973,30.5,11144222 
TABS,ioos:station:wmo:42047:1,2004-08-25T11:39:00Z,27.8966,-93.5973,30.4,11144222 
TABS,ioos:station:wmo:42047:1,2004-08-25T12:09:00Z,27.8966,-93.5973,30.6,11144222 
TABS,ioos:station:wmo:42047:1,2004-08-25T12:39:00Z,27.8966,-93.5973,30.6,11144222 
TABS,ioos:station:wmo:42047:1,2004-08-25T13:09:00Z,27.8966,-93.5973,30.7,11144222 
TABS,ioos:station:wmo:42047:1,2004-08-25T13:39:00Z,27.8966,-93.5973,30.7,11144222 
TABS,ioos:station:wmo:42047:1,2004-08-25T14:09:00Z,27.8966,-93.5973,30.8,11144222 
TABS,ioos:station:wmo:42047:1,2004-08-25T14:39:00Z,27.8966,-93.5973,30.9,11144222 
TABS,ioos:station:wmo:42047:1,2004-08-25T15:09:00Z,27.8966,-93.5973,30.9,11144222 